| time (UTC) | temp C | wind direction | speed KPH | gust KPH | rain 1hr cm | rain 24hr cm | rain mn cm | humidity % | barometer mb |
| 20260508094036 | 3 | 311 | 0.0 | 0.0 | 0.00 | 0.15 | 0.00 | 35 | 1009.9 |
| 20260508092036 | 3 | 311 | 0.0 | 0.0 | 0.00 | 0.18 | 0.00 | 36 | 1009.9 |
| 20260508091928 | 3 | 311 | 0.0 | 0.0 | 0.00 | 0.18 | 0.00 | 36 | 1009.9 |
| 20260508090036 | 3 | 311 | 0.0 | 0.0 | 0.00 | 0.20 | 0.00 | 32 | 1009.9 |
| 20260508084036 | 3 | 311 | 0.0 | 0.0 | 0.00 | 0.20 | 0.00 | 33 | 1009.6 |
| 20260508082037 | 2 | 311 | 0.0 | 0.0 | 0.00 | 0.25 | 0.00 | 36 | 1009.6 |
| 20260508081928 | 2 | 311 | 0.0 | 0.0 | 0.00 | 0.25 | 0.00 | 36 | 1009.6 |
| 20260508080036 | 2 | 311 | 0.0 | 0.0 | 0.00 | 0.33 | 0.00 | 38 | 1009.6 |
| 20260508074036 | 2 | 311 | 0.0 | 0.0 | 0.00 | 0.33 | 0.00 | 41 | 1009.2 |
| 20260508072036 | 3 | 311 | 0.0 | 0.0 | 0.00 | 0.48 | 0.00 | 42 | 1008.8 |
| 20260508071928 | 3 | 311 | 0.0 | 0.0 | 0.00 | 0.48 | 0.00 | 43 | 1008.7 |
| 20260508064036 | 3 | 311 | 0.0 | 0.0 | 0.00 | 0.48 | 0.00 | 49 | 1008.3 |
| 20260508062036 | 3 | 311 | 0.0 | 0.0 | 0.00 | 0.48 | 0.00 | 55 | 1008.2 |
| 20260508061928 | 3 | 311 | 0.0 | 0.0 | 0.00 | 0.48 | 0.00 | 55 | 1008.2 |
| 20260508060036 | 3 | 311 | 0.0 | 0.0 | 0.00 | 0.48 | 0.00 | 59 | 1008.2 |
| 20260508054036 | 4 | 311 | 0.0 | 0.0 | 0.00 | 0.48 | 0.00 | 62 | 1008.2 |
| 20260508052036 | 4 | 311 | 0.0 | 0.0 | 0.00 | 0.48 | 0.00 | 61 | 1008.4 |
| 20260508051928 | 4 | 311 | 0.0 | 0.0 | 0.00 | 0.48 | 0.00 | 60 | 1008.4 |
| 20260508050036 | 5 | 311 | 0.0 | 0.0 | 0.00 | 0.48 | 0.00 | 62 | 1008.4 |
| 20260508044036 | 5 | 311 | 0.0 | 0.0 | 0.00 | 0.48 | 0.00 | 65 | 1008.8 |
| 20260508042037 | 5 | 311 | 0.0 | 0.0 | 0.00 | 0.48 | 0.00 | 68 | 1009.0 |
| 20260508041928 | 5 | 311 | 0.0 | 0.0 | 0.00 | 0.48 | 0.00 | 68 | 1009.0 |
| 20260508040037 | 6 | 311 | 0.0 | 0.0 | 0.00 | 0.48 | 0.48 | 68 | 1008.9 |
| 20260508034036 | 6 | 311 | 0.0 | 0.0 | 0.00 | 0.48 | 0.48 | 67 | 1008.9 |
| 20260508032036 | 7 | 311 | 0.0 | 0.0 | 0.00 | 0.48 | 0.48 | 65 | 1008.8 |
| 20260508031928 | 7 | 311 | 0.0 | 0.0 | 0.00 | 0.48 | 0.48 | 65 | 1008.8 |
| 20260508030036 | 7 | 311 | 0.0 | 0.0 | 0.00 | 0.48 | 0.48 | 62 | 1008.8 |
| 20260508024036 | 8 | 311 | 0.0 | 0.0 | 0.00 | 0.48 | 0.48 | 59 | 1008.8 |
| 20260508022036 | 8 | 311 | 0.0 | 0.0 | 0.00 | 0.48 | 0.48 | 56 | 1008.8 |
| 20260508021928 | 9 | 311 | 0.0 | 0.0 | 0.00 | 0.48 | 0.48 | 56 | 1008.7 |
| 20260508020036 | 9 | 311 | 0.0 | 0.0 | 0.00 | 0.48 | 0.48 | 56 | 1008.8 |
| 20260508014036 | 10 | 311 | 0.0 | 0.0 | 0.00 | 0.48 | 0.48 | 52 | 1009.0 |
| 20260508012036 | 11 | 311 | 0.0 | 0.0 | 0.00 | 0.48 | 0.48 | 52 | 1008.9 |
| 20260508011928 | 11 | 311 | 0.0 | 0.0 | 0.00 | 0.48 | 0.48 | 51 | 1008.8 |
| 20260508010036 | 11 | 311 | 0.0 | 9.7 | 0.00 | 0.48 | 0.48 | 49 | 1008.2 |
| 20260508004036 | 12 | 311 | 0.0 | 9.7 | 0.00 | 0.48 | 0.48 | 49 | 1008.0 |
| 20260508002036 | 12 | 311 | 0.0 | 9.7 | 0.00 | 0.48 | 0.48 | 47 | 1007.7 |
| 20260508001928 | 12 | 311 | 0.0 | 9.7 | 0.00 | 0.48 | 0.48 | 46 | 1007.7 |
| 20260508000038 | 13 | 311 | 0.0 | 16.1 | 0.00 | 0.48 | 0.48 | 44 | 1007.4 |
| 20260507234036 | 13 | 311 | 0.0 | 16.1 | 0.00 | 0.48 | 0.48 | 41 | 1007.2 |
| 20260507232036 | 14 | 293 | 0.0 | 16.1 | 0.00 | 0.48 | 0.48 | 42 | 1007.0 |
| 20260507231928 | 14 | 292 | 0.0 | 16.1 | 0.00 | 0.48 | 0.48 | 41 | 1006.9 |
| 20260507230036 | 14 | 18 | 0.0 | 17.7 | 0.00 | 0.48 | 0.48 | 39 | 1007.0 |
| 20260507222036 | 15 | 334 | 1.6 | 17.7 | 0.00 | 0.53 | 0.48 | 37 | 1006.7 |
| 20260507221927 | 15 | 341 | 6.4 | 17.7 | 0.00 | 0.53 | 0.48 | 37 | 1006.7 |
| 20260507220037 | 15 | 306 | 0.0 | 14.5 | 0.00 | 0.56 | 0.48 | 37 | 1006.7 |
| 20260507214037 | 15 | 298 | 6.4 | 14.5 | 0.00 | 0.56 | 0.48 | 36 | 1006.6 |
| 20260507212037 | 16 | 299 | 9.7 | 14.5 | 0.00 | 0.56 | 0.48 | 37 | 1006.1 |
| 20260507211927 | 16 | 297 | 8.0 | 14.5 | 0.00 | 0.56 | 0.48 | 37 | 1006.0 |
| 20260507210036 | 16 | 301 | 9.7 | 17.7 | 0.00 | 0.56 | 0.48 | 37 | 1005.9 |
| 20260507204037 | 17 | 21 | 1.6 | 17.7 | 0.00 | 0.56 | 0.48 | 36 | 1005.9 |
| 20260507202038 | 17 | 292 | 0.0 | 17.7 | 0.00 | 0.56 | 0.48 | 35 | 1005.8 |
| 20260507201927 | 17 | 292 | 0.0 | 17.7 | 0.00 | 0.56 | 0.48 | 35 | 1005.7 |
| 20260507200037 | 17 | 289 | 0.0 | 19.3 | 0.00 | 0.58 | 0.48 | 36 | 1005.9 |
| 20260507194037 | 18 | 110 | 0.0 | 19.3 | 0.00 | 0.58 | 0.48 | 34 | 1005.8 |
| 20260507192037 | 17 | 302 | 0.0 | 19.3 | 0.00 | 0.69 | 0.48 | 34 | 1006.2 |
| 20260507191927 | 17 | 36 | 0.0 | 19.3 | 0.00 | 0.69 | 0.48 | 34 | 1006.2 |
| 20260507190037 | 17 | 302 | 8.0 | 16.1 | 0.00 | 0.74 | 0.48 | 35 | 1006.4 |
| 20260507182037 | 17 | 313 | 9.7 | 16.1 | 0.00 | 0.76 | 0.48 | 35 | 1006.6 |
| 20260507181927 | 17 | 318 | 11.3 | 16.1 | 0.00 | 0.76 | 0.48 | 35 | 1006.6 |
| 20260507180037 | 17 | 294 | 0.0 | 14.5 | 0.00 | 0.76 | 0.48 | 35 | 1006.9 |
| 20260507174036 | 17 | 193 | 0.0 | 14.5 | 0.00 | 0.76 | 0.48 | 37 | 1007.1 |
| 20260507172037 | 17 | 355 | 0.0 | 14.5 | 0.00 | 0.76 | 0.48 | 41 | 1007.2 |
| 20260507171927 | 16 | 24 | 0.0 | 14.5 | 0.00 | 0.76 | 0.48 | 40 | 1007.1 |
| 20260507170037 | 16 | 306 | 0.0 | 16.1 | 0.00 | 0.76 | 0.48 | 40 | 1007.3 |
| 20260507164035 | 16 | 349 | 0.0 | 16.1 | 0.00 | 0.76 | 0.48 | 40 | 1007.6 |
| 20260507162037 | 16 | 53 | 0.0 | 16.1 | 0.00 | 0.76 | 0.48 | 40 | 1007.8 |
| 20260507161927 | 16 | 33 | 9.7 | 16.1 | 0.00 | 0.76 | 0.48 | 41 | 1007.9 |
| 20260507160037 | 15 | 308 | 0.0 | 9.7 | 0.00 | 0.76 | 0.48 | 42 | 1008.0 |
| 20260507154037 | 15 | 320 | 0.0 | 9.7 | 0.00 | 0.76 | 0.48 | 56 | 1008.2 |
| 20260507152037 | 15 | 323 | 0.0 | 9.7 | 0.00 | 0.76 | 0.48 | 58 | 1008.2 |
| 20260507151927 | 15 | 324 | 0.0 | 9.7 | 0.00 | 0.76 | 0.48 | 58 | 1008.2 |
| 20260507150038 | 15 | 319 | 0.0 | 0.0 | 0.00 | 0.76 | 0.48 | 64 | 1008.3 |
| 20260507144038 | 13 | 335 | 0.0 | 0.0 | 0.00 | 0.76 | 0.48 | 64 | 1008.4 |
| 20260507142036 | 13 | 301 | 0.0 | 0.0 | 0.00 | 0.76 | 0.48 | 65 | 1008.5 |
| 20260507141927 | 13 | 301 | 8.0 | 0.0 | 0.00 | 0.76 | 0.48 | 64 | 1008.4 |
| 20260507140036 | 12 | 317 | 0.0 | 0.0 | 0.00 | 0.76 | 0.48 | 66 | 1008.6 |
| 20260507134037 | 11 | 317 | 0.0 | 0.0 | 0.00 | 0.76 | 0.48 | 59 | 1008.6 |
| 20260507132036 | 11 | 301 | 0.0 | 0.0 | 0.00 | 0.76 | 0.48 | 30 | 1008.7 |
| 20260507131927 | 11 | 299 | 0.0 | 0.0 | 0.00 | 0.76 | 0.48 | 28 | 1008.7 |
| 20260507130035 | 10 | 295 | 0.0 | 0.0 | 0.00 | 0.76 | 0.48 | 100 | 1009.0 |
| 20260507124035 | 10 | 294 | 0.0 | 0.0 | 0.00 | 0.76 | 0.48 | 100 | 1008.6 |
| 20260507122036 | 10 | 294 | 0.0 | 0.0 | 0.00 | 0.76 | 0.48 | 100 | 1008.7 |
| 20260507121927 | 10 | 294 | 0.0 | 0.0 | 0.00 | 0.76 | 0.48 | 100 | 1008.7 |
| 20260507114036 | 9 | 294 | 0.0 | 0.0 | 0.05 | 0.76 | 0.48 | 100 | 1008.4 |
| 20260507112036 | 9 | 294 | 0.0 | 0.0 | 0.05 | 0.76 | 0.48 | 100 | 1008.3 |
| 20260507111927 | 9 | 294 | 0.0 | 0.0 | 0.05 | 0.76 | 0.48 | 100 | 1008.5 |
| 20260507110036 | 9 | 294 | 0.0 | 0.0 | 0.13 | 0.71 | 0.43 | 100 | 1008.4 |
| 20260507104038 | 9 | 294 | 0.0 | 0.0 | 0.13 | 0.71 | 0.43 | 100 | 1008.1 |
| 20260507102036 | 9 | 294 | 0.0 | 0.0 | 0.13 | 0.71 | 0.43 | 100 | 1007.7 |
| 20260507101927 | 9 | 294 | 0.0 | 0.0 | 0.13 | 0.71 | 0.43 | 100 | 1007.6 |
| 20260507100038 | 10 | 294 | 0.0 | 11.3 | 0.08 | 0.58 | 0.30 | 100 | 1007.6 |